{"data":{"norad_id":60550,"epoch":"2026-09-22T17:39:54.524736Z","epoch_age_seconds":95831,"freshness":"FRESH","line1":"1 60550U 24149CL  26265.73604774  .00000986  00000+0  87564-4 0  9991","line2":"2 60550  97.6663 339.9907 0007387 107.0703 253.1329 14.98362116114673","mean_motion":14.98362116,"eccentricity":0.0007387,"inclination_deg":97.6663,"raan_deg":339.9907,"arg_perigee_deg":107.0703,"mean_anomaly_deg":253.1329,"bstar":8.7564e-5,"rev_number":11467,"period_min":96.104939161449,"perigee_km":566.82254251257,"apogee_km":577.0906107627,"semimajor_km":6950.0935766376,"source":"CELESTRAK","updated_at":"2026-09-23T09:00:20.673858Z"}}